GFSNIL_sfc_thetae_096.txt.gz
Theta_e
300 298 297 296 295 294 293 293 293 293 293 294 294 294 294 294 294 294 293 292 293 295
295 295 294 293 292 291 291 292 291 291 291 291 291 292 292 291 291 291 291 290 291 291
292 291 290 290 289 289 289 289 289 289 288 289 289 289 289 288 290 290 289 289 288 289
289 289 289 288 287 287 288 288 287 287 287 287 287 287 287 287 288 287 286 287 286 287
289 288 287 286 286 286 286 286 286 286 285 286 286 286 285 285 286 285 285 285 285 285
286 286 285 285 285 285 285 284 285 285 284 284 284 284 285 286 286 285 285 285 284 284
285 284 284 284 283 283 283 283 283 283 283 283 283 284 285 285 284 284 285 285 285 284
284 284 283 282 282 281 281 281 281 281 281 281 282 284 283 283 283 284 284 284 284 284
283 281 281 280 280 280 280 280 280 280 280 280 282 285 286 285 283 284 283 283 283 284
281 280 280 280 279 279 279 279 279 279 279 279 279 284 285 285 283 283 283 283 283 283
280 279 278 278 277 277 278 277 277 278 278 277 279 283 285 285 283 283 283 283 283 283
279 277 276 275 275 276 275 275 275 277 274 273 275 282 284 284 281 282 281 282 283 282
277 275 274 275 274 275 273 275 275 274 273 272 269 280 283 283 279 273 281 283 284 283
275 274 274 273 273 270 268 270 266 269 269 268 271 274 282 283 280 280 282 282 282 283

GFSNIL_sfc_thetae_099.txt.gz
Theta_e
307 303 298 298 295 293 293 292 292 291 291 291 291 291 291 291 291 290 289 288 288 290
299 296 294 292 292 291 290 290 289 289 288 289 289 289 289 289 289 288 287 287 287 287
295 293 291 290 289 288 288 288 287 286 287 287 287 287 287 287 288 286 286 287 285 285
291 289 288 288 287 287 287 286 286 285 285 285 285 285 285 286 286 285 284 284 284 284
288 287 286 285 285 286 285 285 285 284 284 284 284 284 284 284 284 283 283 283 283 283
286 285 284 284 284 285 285 284 284 283 282 282 283 283 284 284 283 283 283 284 283 283
284 284 284 283 284 283 283 282 281 281 281 282 282 283 283 283 282 282 283 284 284 284
284 283 283 282 282 282 281 281 281 280 280 281 281 284 283 282 282 282 282 284 284 284
283 282 282 281 281 281 280 279 280 279 279 279 281 285 286 284 282 282 282 282 283 284
282 281 281 280 279 279 278 279 278 278 279 278 279 285 285 285 282 281 281 281 282 282
281 280 278 278 278 277 277 277 277 277 278 278 279 283 284 285 282 281 281 281 281 281
279 278 277 275 276 276 276 276 276 277 274 273 275 282 283 283 280 281 281 281 283 281
278 276 275 276 275 275 274 276 276 276 273 272 270 279 282 283 280 273 279 280 283 283
276 275 276 275 274 273 273 274 272 272 272 270 272 274 281 283 280 280 278 281 281 282

GFSNIL_sfc_thetae_102.txt.gz
Theta_e
319 315 310 305 301 297 295 293 291 290 290 290 290 289 290 289 289 287 287 286 286 287
306 304 300 297 295 294 291 290 288 288 287 287 287 287 288 287 286 286 285 285 285 285
299 298 295 293 290 290 288 287 286 286 286 285 286 286 286 286 285 284 284 284 284 284
294 293 292 290 288 287 286 285 285 285 285 285 284 284 284 284 284 283 283 283 283 283
291 290 289 287 286 285 284 284 284 284 284 284 284 283 283 283 283 282 282 283 283 283
288 287 286 284 284 284 284 283 282 283 282 282 283 283 283 283 283 282 282 282 281 282
286 285 284 284 283 283 283 282 281 282 282 283 282 283 283 282 282 282 282 283 283 282
283 283 283 282 282 282 281 281 281 281 281 281 282 283 282 282 281 281 281 282 282 282
283 282 282 282 282 281 281 280 280 280 280 280 282 287 287 283 281 282 281 281 281 282
282 282 282 281 280 280 279 279 279 279 279 279 281 286 286 285 282 281 281 281 281 282
282 281 280 279 279 278 278 278 278 278 278 278 281 285 285 285 282 281 281 281 281 281
281 280 279 278 277 277 277 276 276 277 275 276 278 283 284 283 281 282 281 281 282 283
281 279 278 278 276 276 275 276 277 276 275 275 276 280 283 283 281 274 279 280 283 283
279 278 277 276 274 274 274 275 273 274 274 275 275 276 282 283 281 280 279 278 281 281

GFSNIL_sfc_thetae_105.txt.gz
Theta_e
323 322 317 311 306 302 299 296 295 294 293 293 293 293 293 292 291 291 291 290 290 290
321 317 311 306 303 298 295 293 292 292 291 291 291 292 291 290 289 289 289 289 289 288
313 310 304 300 296 294 292 291 290 289 289 288 289 290 290 288 288 288 288 287 287 286
299 300 299 297 293 291 290 289 288 288 287 287 287 288 287 287 287 286 286 286 285 285
296 295 293 292 290 289 288 287 287 286 286 286 286 286 286 286 286 285 284 284 285 284
292 292 291 289 288 287 286 286 285 285 285 285 285 285 286 286 285 285 285 284 284 284
290 290 289 287 286 286 285 284 284 284 284 285 285 285 285 284 284 284 285 285 285 284
287 287 286 285 285 284 284 283 283 283 283 284 284 285 284 284 284 284 284 284 284 284
285 285 285 284 284 283 282 282 282 282 282 282 284 287 286 284 283 283 283 283 283 284
284 284 284 283 282 281 281 281 281 281 281 282 284 288 287 285 283 283 283 283 283 283
284 283 282 281 281 280 280 280 280 280 280 281 282 287 287 285 283 283 283 283 283 283
283 282 281 280 279 279 279 279 279 279 279 280 281 286 286 285 283 282 282 282 283 284
283 282 281 280 279 279 279 279 279 278 278 278 279 285 286 284 282 281 281 282 283 283
281 281 281 279 278 277 277 277 277 277 276 276 277 280 285 285 282 281 281 281 282 282

GFSNIL_sfc_thetae_108.txt.gz
Theta_e
331 331 329 327 321 316 310 305 302 302 300 300 301 300 299 298 297 297 297 295 295 294
326 327 325 323 318 313 306 299 298 298 297 298 297 297 296 296 294 295 294 294 293 292
324 325 322 318 312 305 301 296 296 297 296 295 296 295 294 293 293 292 292 292 291 291
317 315 311 308 304 301 299 295 294 295 294 293 293 293 292 292 291 291 290 290 290 289
310 303 303 300 298 296 294 294 292 293 292 292 292 292 291 289 290 289 289 289 289 288
303 302 302 296 293 293 291 291 289 291 290 290 290 290 290 289 289 289 289 288 288 287
300 300 296 296 290 290 289 289 288 290 290 289 289 289 289 288 288 288 288 288 288 287
296 295 292 289 290 288 289 287 288 288 288 288 288 288 287 288 288 287 287 287 287 287
290 289 289 288 286 286 285 286 286 286 286 287 286 287 288 287 287 286 285 285 286 286
289 288 286 285 284 284 284 284 284 285 285 286 286 288 287 287 286 285 285 285 285 284
287 287 285 283 283 283 283 283 284 284 284 286 286 288 288 286 285 285 285 285 285 285
287 286 284 283 282 282 282 283 283 283 283 284 285 288 288 285 284 284 283 284 285 285
287 286 284 284 283 283 284 283 282 282 283 284 285 288 288 286 284 283 283 283 284 283
285 285 285 284 283 283 282 281 282 281 281 282 284 286 287 287 284 284 282 283 283 284

GFSNIL_sfc_thetae_111.txt.gz
Theta_e
332 332 332 330 327 325 321 319 317 310 307 307 306 305 305 302 300 300 299 297 297 295
332 331 330 329 329 327 322 314 309 306 302 303 303 301 300 298 296 297 296 296 295 294
328 328 329 327 325 323 315 305 305 301 300 300 300 298 297 296 296 295 294 294 293 292
324 324 326 322 319 315 307 302 300 299 299 298 297 296 295 294 293 292 291 292 291 291
321 316 317 312 307 304 302 300 298 297 295 295 294 294 293 291 292 291 290 290 290 289
315 308 308 304 301 298 296 295 294 293 293 292 293 292 292 291 291 290 290 290 289 288
309 308 307 303 298 295 295 292 292 292 291 291 291 291 290 290 289 289 289 290 289 288
305 304 302 298 295 293 293 292 291 290 289 290 289 289 289 289 288 288 287 288 288 288
299 295 293 290 289 289 288 288 286 287 287 287 287 290 290 289 287 287 286 286 286 286
292 290 290 289 287 286 286 285 286 285 286 286 286 290 290 289 287 286 286 285 285 284
289 288 286 285 285 285 284 284 284 284 285 286 285 289 289 287 286 286 285 285 285 284
289 287 285 284 283 283 283 284 284 284 285 285 285 289 288 286 285 284 284 285 285 285
288 287 286 286 285 284 284 284 283 284 284 285 286 289 288 286 284 283 283 283 284 284
286 286 287 286 284 284 284 283 283 283 283 284 285 287 289 287 284 284 283 283 282 284

GFSNIL_sfc_thetae_114.txt.gz
Theta_e
327 328 327 327 327 324 321 319 317 317 316 312 309 307 305 302 300 297 295 293 292 291
328 328 327 327 327 326 322 316 313 312 311 308 305 303 301 297 295 294 293 292 291 290
327 328 328 327 325 325 322 312 308 307 306 304 302 298 296 294 293 292 291 291 290 289
322 323 321 325 323 321 310 307 304 303 302 300 298 297 294 292 292 291 290 289 288 288
316 315 317 319 315 308 306 303 303 301 300 299 296 295 293 292 291 289 288 288 288 287
311 313 314 310 306 304 302 301 300 299 298 296 294 293 294 291 290 289 288 288 287 287
304 306 306 304 301 299 298 296 295 295 295 295 292 293 291 290 289 288 288 288 287 287
300 301 300 297 297 294 294 294 293 292 291 291 290 290 289 289 288 287 286 287 287 286
297 294 291 289 289 289 289 290 289 288 288 289 290 292 291 289 287 286 285 285 284 285
289 288 288 287 287 287 286 286 286 286 286 286 286 291 291 289 287 286 285 284 284 284
287 286 285 285 285 285 285 285 285 285 286 286 286 291 291 288 286 285 284 284 284 283
287 284 284 285 284 284 284 283 284 285 285 285 285 291 290 287 284 284 283 284 284 284
286 284 283 283 284 283 284 284 283 284 285 285 285 290 290 286 284 282 282 283 284 284
282 281 282 281 280 281 283 283 283 283 284 285 286 287 289 288 283 283 282 282 282 283

GFSNIL_sfc_thetae_120.txt.gz
Theta_e
321 320 320 321 321 322 322 323 323 322 322 321 320 319 319 320 318 314 311 307 301 300
319 319 320 321 322 323 323 323 321 320 320 320 319 318 317 315 313 309 307 307 301 295
317 319 320 321 321 322 323 320 315 316 318 320 321 317 314 314 305 305 302 302 298 293
321 319 319 320 321 322 322 318 315 315 316 318 316 313 311 310 307 305 303 296 295 293
314 314 316 320 322 321 322 318 318 317 316 314 313 309 309 306 301 301 299 297 294 294
306 308 311 315 316 316 316 314 311 310 311 309 308 306 305 305 301 300 298 297 294 293
299 301 303 305 306 306 306 306 305 305 306 304 304 303 301 301 298 297 296 294 293 291
296 298 299 298 298 296 296 298 298 299 298 298 297 297 296 295 293 293 292 292 291 290
294 293 293 292 292 292 291 291 291 292 292 292 294 295 295 293 292 290 289 288 287 288
290 290 289 288 288 288 288 289 290 290 290 290 290 293 294 292 290 289 288 287 286 285
288 287 286 286 286 285 286 288 288 288 288 287 287 291 293 290 287 287 287 286 286 286
286 282 284 281 281 286 285 285 285 285 285 285 285 290 292 289 286 285 285 285 286 286
283 280 279 280 280 284 284 284 284 284 285 285 285 290 291 288 285 284 284 284 284 284
280 278 278 277 277 281 284 283 284 283 284 284 285 286 291 290 285 285 284 284 283 284

GFSNIL_sfc_thetae_123.txt.gz
Theta_e
321 321 320 320 319 319 319 319 318 318 319 319 318 317 317 317 317 319 318 317 315 311
320 320 319 319 318 319 320 319 316 318 318 319 318 318 318 317 318 316 316 315 313 309
317 318 319 317 317 319 320 318 314 316 317 318 318 319 319 319 317 315 314 313 311 306
313 314 315 317 317 318 318 317 318 317 318 318 318 319 318 317 316 310 312 308 306 307
315 314 314 315 317 319 320 320 320 319 318 318 318 318 315 314 311 309 308 308 302 302
308 309 310 314 316 315 316 318 315 316 316 316 314 312 310 311 308 305 304 303 299 300
297 298 300 302 303 304 306 309 308 307 306 305 304 304 303 302 301 299 298 297 296 295
295 296 297 296 298 297 297 298 299 299 298 299 299 299 298 297 296 294 294 292 292 291
292 291 290 291 291 292 292 293 291 293 292 292 295 295 295 295 294 292 291 290 289 288
289 288 288 287 287 287 287 288 290 290 290 290 289 292 294 293 290 290 289 288 287 286
287 287 286 286 286 285 286 287 288 287 288 288 287 290 292 291 289 288 288 287 286 286
286 283 283 281 281 286 286 285 285 285 285 285 285 289 291 289 286 286 286 286 286 286
284 282 282 282 281 283 285 283 282 284 282 281 281 288 291 289 285 284 284 284 285 284
279 279 279 277 277 278 279 281 276 277 277 279 280 282 290 291 285 285 282 284 283 284

GFSNIL_sfc_thetae_126.txt.gz
Theta_e
322 322 322 321 320 318 318 317 317 316 318 317 317 317 316 316 316 316 315 316 317 316
321 321 321 320 319 320 318 317 316 317 317 317 316 316 316 316 315 316 315 317 317 317
320 320 320 316 316 317 317 315 312 314 315 316 317 317 317 317 318 317 317 316 316 315
315 316 316 317 316 316 315 313 315 316 317 318 318 318 317 318 318 317 316 315 311 312
310 310 312 313 314 312 313 314 316 318 317 317 317 318 317 317 315 313 312 310 306 306
309 311 311 312 313 313 313 315 314 315 315 316 315 313 311 309 307 305 304 303 301 300
297 299 302 303 305 305 306 306 306 305 305 304 304 303 303 303 301 299 298 298 297 296
294 295 295 300 298 297 296 297 298 299 298 298 299 298 298 298 297 296 295 293 292 292
292 290 292 292 292 293 292 293 293 292 292 291 295 295 295 294 292 291 290 290 290 289
289 288 288 287 287 288 288 288 290 289 288 288 288 292 293 293 290 290 289 288 286 285
288 287 286 286 286 286 286 287 286 286 286 286 287 291 292 291 287 286 286 287 287 286
287 284 283 282 282 285 283 282 281 282 281 283 282 290 291 288 284 285 285 286 286 286
284 281 281 281 280 279 282 282 282 281 280 279 279 288 291 287 282 285 284 284 285 285
280 280 280 278 276 282 284 282 281 277 275 277 278 282 290 290 284 285 284 284 284 284

GFSNIL_sfc_thetae_129.txt.gz
Theta_e
324 324 324 324 322 321 320 320 321 319 320 320 320 320 320 319 318 319 318 318 318 318
323 323 323 323 323 322 321 320 319 319 319 319 319 319 319 318 317 317 317 317 317 316
321 322 323 322 321 321 321 319 317 317 318 318 318 317 317 317 317 316 316 317 317 316
320 320 321 320 320 319 319 316 316 316 317 318 317 318 317 317 318 316 316 316 314 312
315 315 317 318 317 315 316 316 316 316 317 317 318 318 317 316 315 314 312 310 306 305
309 309 311 312 313 314 315 315 316 316 316 315 314 315 313 312 309 308 307 305 305 305
309 310 311 310 310 311 311 312 311 310 309 308 307 307 306 305 304 303 302 300 299 298
298 299 300 303 302 301 301 303 304 302 301 302 302 301 302 301 299 297 297 295 295 295
294 293 295 295 295 294 293 294 294 295 294 294 295 295 296 295 295 294 294 294 292 292
290 290 291 292 292 292 292 292 292 292 292 291 290 293 294 292 292 291 291 290 289 288
289 288 287 287 287 287 288 289 288 287 287 287 288 291 292 290 289 288 288 288 288 288
288 286 286 285 285 286 285 285 284 284 286 286 286 291 291 288 287 287 286 286 287 287
286 285 285 284 284 283 284 285 284 284 283 284 284 291 290 287 286 285 285 285 286 286
282 283 284 282 281 284 284 284 282 279 278 280 280 287 291 289 285 286 285 285 285 285

GFSNIL_sfc_thetae_132.txt.gz
Theta_e
330 330 330 330 330 328 328 327 327 326 326 326 325 325 325 325 324 324 325 323 323 321
329 329 329 329 330 329 329 327 327 327 325 326 326 325 324 324 323 323 322 321 320 319
327 328 329 329 328 328 328 328 325 326 325 325 325 325 324 323 321 319 318 318 317 317
326 326 327 327 327 327 327 326 325 324 324 324 324 324 322 319 318 316 317 317 315 314
324 325 325 325 326 326 325 326 324 323 322 322 322 322 320 318 317 316 315 315 312 312
322 322 323 323 324 324 323 323 322 321 320 319 320 319 318 318 317 314 314 310 307 306
318 319 321 321 321 321 320 320 319 318 317 317 317 317 315 312 308 305 303 302 302 301
313 314 314 314 313 311 311 311 311 308 306 305 304 302 303 302 301 300 298 297 297 296
304 300 301 299 297 297 296 299 297 296 297 297 296 295 296 298 298 297 297 296 294 293
295 296 298 297 297 297 297 296 296 296 295 293 293 294 294 293 298 297 297 295 293 291
295 293 292 293 294 294 295 295 294 293 292 291 291 293 292 291 295 294 293 293 292 292
295 292 291 291 292 292 291 290 290 289 289 290 290 292 291 290 290 289 289 290 291 291
293 290 290 291 290 289 290 288 288 287 288 287 289 291 291 290 290 287 288 288 287 286
291 289 291 289 288 288 287 287 286 285 285 286 287 290 290 289 289 288 288 287 286 287

GFSNIL_sfc_thetae_135.txt.gz
Theta_e
332 332 331 330 330 331 330 330 331 329 329 328 328 328 327 326 325 325 324 323 323 322
330 331 330 331 331 331 332 330 330 329 328 328 327 327 326 325 324 324 323 323 322 321
327 329 330 331 330 330 331 330 329 328 328 327 327 327 326 324 324 322 321 320 320 319
326 327 329 329 330 330 330 329 328 327 327 326 326 325 324 323 322 320 319 318 316 316
324 325 326 326 328 329 328 329 328 327 325 325 324 324 323 320 317 317 315 316 315 314
322 323 324 325 326 327 327 326 325 324 322 322 322 322 321 319 317 316 316 315 312 308
320 322 323 324 323 323 322 321 321 320 320 320 320 319 319 317 315 311 307 305 304 303
317 319 321 320 318 317 317 319 319 318 316 314 312 309 309 307 304 301 299 298 298 298
309 307 309 309 307 305 304 305 304 303 302 301 299 297 298 300 300 298 297 295 295 295
302 297 297 297 296 296 296 296 296 297 296 294 295 295 296 295 299 299 299 298 295 292
295 294 294 294 294 294 294 295 294 293 293 293 293 295 294 293 297 297 296 294 292 291
295 293 293 294 295 296 294 293 293 292 291 291 289 293 293 293 291 290 289 290 292 292
295 292 292 293 294 292 293 289 289 288 289 287 288 292 292 291 289 287 286 287 286 287
294 291 292 291 291 289 289 287 287 286 287 287 288 290 292 291 288 288 287 286 286 286

GFSNIL_sfc_thetae_138.txt.gz
Theta_e
329 328 328 327 327 326 326 327 327 326 325 325 325 324 324 323 322 321 320 319 319 319
327 328 328 328 328 327 327 328 326 326 325 325 324 324 323 322 321 321 320 321 320 320
324 326 328 328 327 326 326 327 325 325 325 324 324 324 323 322 322 321 321 321 319 319
318 322 324 326 327 326 326 325 325 324 324 323 323 322 322 323 322 320 320 318 317 317
317 318 319 322 324 325 325 324 324 324 322 322 323 323 323 321 320 319 317 316 315 315
315 316 317 320 321 322 322 322 323 324 323 323 323 322 321 321 318 317 316 315 314 314
312 315 317 318 319 319 321 322 323 323 323 321 320 320 319 318 316 315 314 314 313 311
309 312 314 314 316 318 317 320 318 317 317 317 317 316 315 314 314 312 307 303 303 303
305 306 306 306 309 309 309 310 310 309 308 309 307 301 302 306 307 302 301 299 297 297
298 297 298 298 299 299 301 301 302 302 302 302 302 298 298 297 303 302 301 298 296 292
292 292 294 295 296 296 295 297 298 299 299 299 296 295 296 294 299 299 298 296 293 292
290 290 291 292 295 295 293 293 292 291 291 291 290 294 294 294 292 291 291 291 292 291
290 289 289 292 293 291 290 290 288 287 289 288 289 293 293 292 289 288 287 287 288 286
289 289 290 288 291 290 288 287 288 287 286 287 288 290 293 292 288 288 286 285 284 285